{"data":{"norad_id":58496,"intl_designator":"2023-187A","name":"XINGCHI-1 02A","alt_names":[],"object_type":"PAYLOAD","status":"ACTIVE","operator":null,"country":"EGYP","launch_date":"2023-12-04","launch_site_code":"JSC","launch_vehicle":null,"mission":null,"orbit_class":"UNKNOWN","rcs_meters":null,"size_class":null,"mass_kg":null,"dimensions":null,"purposes":[],"wikipedia_slug":null,"has_3d_model":false,"image_url":null,"decayed_at":null,"tle_current":{"epoch":"2026-05-25T05:11:38.561856Z","epoch_age_seconds":67079,"freshness":"FRESH","line1":"1 58496U 23187A   26145.21641854  .00001215  00000+0  15166-3 0  9992","line2":"2 58496  97.9259 228.2121 0010812 213.8778 146.1746 14.84188961133715","mean_motion":14.84188961,"eccentricity":0.0010812,"inclination_deg":97.9259,"raan_deg":228.2121,"arg_perigee_deg":213.8778,"mean_anomaly_deg":146.1746,"bstar":0.00015166,"rev_number":13371,"period_min":97.022686318174,"perigee_km":608.57052519148,"apogee_km":623.69493405482,"semimajor_km":6994.2697296231,"source":"CELESTRAK","updated_at":"2026-05-25T13:38:00.773237Z"}}}